Starlink 36186

operational
NORAD ID: 67165 Int'l Des: 2025-303 Owner: SPXS Country: US Constellation: starlink
LEOCIRCULAR

Über Starlink 36186

Beschreibung wird geladen...

Live-Position

3D-Globus wird geladen...

Nächste Überflüge

Höhenverlauf

Altitude vs Time

uPlot chart will show altitude changes over time

Zweizeiliger Elementsatz

1 67165C 25303C 25352.76784722 .00691840 00000+0 10230-2 0 3526
2 67165 43.0044 61.7826 0007379 289.0464 261.3547 16.03203356 19
Epoch: 18. Dez. 2025 • Age: 49 hours

Aktueller Status

Höhe 267.9 km
Geschwindigkeit 7.75 km/s
Subsatellitenpunkt -38.90°S, 105.57°W
Startdatum 17. Dez. 2025
Alter 2 days
Typ internet

Technische Details

Klassifizierung Payload
Masse 575.00 kg
Trockenmasse 530.00 kg
Gesamtmasse 575.00 kg
Länge 0.30 m
Durchmesser 4.10 m
Spannweite 29.00 m
Form Box + pan
Hersteller SPXS
Bus-Typ Starlink V2MO
Phasenstatus In Orbit
Besitzer/Staat SPXS/US

Große Konstellationen

Loading constellations...